Content
SEND FEEDBACK

Daily
Averages
Monthly
Summary
Canada

INGONISH BEACH, NOVA SCOTIA


Home > North America > Canada > Nova Scotia
Elevation: 16 feet     Latitude: 46 39N     Longitude: 060 24W

WEATHER
 
SELECT A DAY
Number of Records: 131,720;   Date Range: 12/10/00 - 12/20/14
 
SHARE

PRINT THIS DATA

[ ← Previous Day ]
WEATHER ALMANAC - NOVEMBER 5, 2013
[ Next Day → ]
[ °C ]   °F
Weather ElementAverageHighLow
Temperature35.4 °F40.1 °F (12:00 pm)29.3 °F (9:00 pm)
Dewpoint26.5 °F30.4 °F (8:00 am)21.6 °F (11:00 am)
Humidity70.1 %89 % (6:00 am)39 % (2:00 pm)
Barometer30.62 in30.66 in (8:00 am)30.55 in (11:00 pm)
Wind Speed2.4 mph4.6 mph (11:00 am)
Weather ElementAverage
Wind DirectionWSW (244.8 °)

Weather ElementTotal
Precipitation---
Heating Degree Days30.3 (Base 65)
Averaged from 27 records on November 5, 2013
WEATHER CONDITIONS BREAKOUT
WIND DIRECTION BREAKOUT
WEATHER BY HOUR - NOVEMBER 5, 2013
[ °C ]   °F
Local TimeTemperatureDewpointHumidityBarometerVisibilityWind DirectionWind SpeedGust SpeedPrecipitationEventsConditions
1:00 AM34.7 °F27.7 °F76 %30.59 inWest (260°)2.3 mph
2:00 AM35.0 °F28.0 °F65 %30.60 inWest (260°)3.5 mph
2:00 AM35.1 °F27.5 °F74 %30.60 inWest (260°)3.5 mph
3:00 AM35.2 °F28.0 °F75 %30.61 inNW (320°)1.2 mph
4:00 AM33.8 °F27.9 °F79 %30.61 inWest (260°)2.3 mph
5:00 AM31.6 °F28.2 °F87 %30.63 inWest (260°)1.2 mph
6:00 AM30.7 °F27.9 °F89 %30.63 inWSW (250°)1.2 mph
7:00 AM32.0 °F28.8 °F88 %30.65 inWSW (250°)3.5 mph
8:00 AM35.0 °F30.0 °F77 %30.66 inWSW (240°)2.3 mph
8:00 AM34.7 °F30.4 °F84 %30.66 inWSW (240°)2.3 mph
9:00 AM39.6 °F25.5 °F57 %30.65 inNorth (10°)2.3 mph
10:00 AM39.7 °F25.2 °F56 %30.65 inNW (310°)1.2 mph
11:00 AM39.7 °F21.6 °F48 %30.66 inWest (280°)4.6 mph
12:00 PM40.1 °F21.6 °F48 %30.64 inWest (270°)4.6 mph
1:00 PM39.9 °F23.0 °F51 %30.63 inNW (320°)2.3 mph
2:00 PM39.0 °F23.0 °F39 %30.63 inWSW (250°)2.3 mph
2:00 PM39.4 °F22.8 °F52 %30.63 inWSW (250°)2.3 mph
3:00 PM39.4 °F23.7 °F54 %30.61 inWest (280°)3.5 mph
4:00 PM38.7 °F25.5 °F59 %30.62 inWest (260°)2.3 mph
5:00 PM37.6 °F26.4 °F64 %30.61 inWNW (300°)1.2 mph
6:00 PM35.6 °F28.6 °F76 %30.60 inSSW (200°)1.2 mph
7:00 PM31.8 °F27.5 °F84 %30.59 inWSW (240°)2.3 mph
8:00 PM30.0 °F26.0 °F78 %30.60 inSW (230°)2.3 mph
8:00 PM29.8 °F25.9 °F85 %30.60 inSW (230°)2.3 mph
9:00 PM29.3 °F26.4 °F89 %30.59 inSW (220°)2.3 mph
10:00 PM33.3 °F28.4 °F82 %30.57 inSouth (180°)2.3 mph
11:00 PM35.6 °F29.1 °F77 %30.55 inSouth (180°)3.5 mph
Hourly data recorded from CXIB, located miles away from Ingonish Beach, Nova Scotia







STORIES FROM OUR PARTNERS